Terminal Aerodrome Forecast
Issued by NWS Spokane, WA

Home | Current Version | Previous Version | Text Only | Print | Product List | Glossary On
Versions: 1 2 3 4 5 6 7 8 9 10 11 12 13 14
000
FTUS46 KOTX 260521
TAFEAT
TAF
KEAT 260521Z 2606/2706 31015KT P6SM SCT090 BKN200
     FM261800 29008KT P6SM SKC
     FM270200 30015KT P6SM SKC=

USA.gov is the U.S. government's official web portal to all federal, state and local government web resources and services.